Regional Weather Roundup
Issued by NWS

Home | Current Version | Previous Version | Graphics & Text | Print | Product List | Glossary On
Versions: 1 2 3 4 5 6 7 8 9 10 11 12 13 14 15 16 17 18 19 20 21 22 23 24 25 26 27 28 29 30 31 32 33 34 35 36 37 38 39 40 41 42 43 44 45 46 47 48 49 50
000
ASUS45 KBOI 052010
RWRID
WEATHER ROUNDUP FOR IDAHO
NATIONAL WEATHER SERVICE BOISE ID
200 PM MDT TUE MAY 05 2015

NOTE: "FAIR" INDICATES FEW OR NO CLOUDS BELOW 12000 FEET
WITH NO SIGNIFICANT WEATHER AND/OR OBSTRUCTIONS TO VISIBILITY

IDZ012-014-052100-
SOUTHWEST IDAHO


CITY           SKY/WX    TMP DP  RH WIND       PRES   REMARKS
BOISE          SUNNY     67  28  23 NW18      29.86F
CALDWELL       SUNNY     66  32  28 NW16G24   29.89F
MOUNTAIN HOME  SUNNY     71  16  12 NW26G36   29.82F
$$

IDZ016-017-052100-
SOUTHCENTRAL IDAHO


CITY           SKY/WX    TMP DP  RH WIND       PRES   REMARKS
BURLEY         SUNNY     68  39  34 W13G21    29.79F
JEROME         SUNNY     70  25  18 SW23G29   29.81F
TWIN FALLS     MOSUNNY   72  27  18 W18G24    29.81F
$$

IDZ019>023-052100-
SOUTHEAST IDAHO


CITY           SKY/WX    TMP DP  RH WIND       PRES   REMARKS
IDAHO FALLS    PTSUNNY   73  39  29 SW9       29.78F
POCATELLO      MOSUNNY   70  38  31 SW17G25   29.79F
REXBURG        MOSUNNY   70  37  29 MISG      29.78F
$$

IDZ006-010-011-018-031-032-052100-
CENTRAL IDAHO MOUNTAINS


CITY           SKY/WX    TMP DP  RH WIND       PRES   REMARKS
MCCALL         MOSUNNY   56  35  45 SW8       29.88F
HAILEY         MOSUNNY   68  39  34 SE12      29.81F
STANLEY        NOT AVBL
SALMON           N/A     64  39  39 NE9       29.73R
CHALLIS        PTSUNNY   62  38  40 E8        29.75F
$$

IDZ002-004-006-007-026-052100-
NORTHERN IDAHO


CITY           SKY/WX    TMP DP  RH WIND       PRES   REMARKS
LEWISTON       PTSUNNY   64  26  23 VRB3      29.96F
LOWELL           N/A     59  37  44 CALM      29.97F
COEUR D`ALENE  MOSUNNY   57  30  35 S15G21    29.95F
MULLAN PASS    MOSUNNY   43  24  47 VRB6      29.94S
$$


USA.gov is the U.S. government's official web portal to all federal, state and local government web resources and services.